Powrót do katalogu

STARLINK-30523

AktywnyŁącznośćVLEO
NORAD 57997·PAYLOAD·🇺🇸 United States

Wystrzelony Oct 5, 2023 z Cape Canaveral Space Force Station

Loading…

Następne Przeloty (najbliższe 24 godziny)

TLE

ŚwieżeSource: CelesTrak SupGP

Epoka: Sep 14, 2026, 21:06 UTC

1 57997C 23153G   26257.87965278  .00039854  00000+0  14437-2 0  2571
2 57997  43.0032  78.6303 0002086 272.5859 327.7984 15.27553237    13

Śledź STARLINK-30523 w czasie rzeczywistym z AllMySat

Download on the App Store